sat.trackr.live / text

‹ back to catalog

STARLINK-31725

NORAD 59538 · 2024-074E

PAYLOAD ACTIVE UNKNOWN

§ Identity

Operator
Country
US
Launch date
2024-04-18
Launch site
AFETR
Launch vehicle
Mass (kg)
RCS (m²)

Purposes: comms

External: N2YO · Heavens-Above · Gunter

§ Orbital elements

Epoch: 2026-05-24T15:56:59.275680Z

Period
88.53 min
Inclination
42.9733°
Eccentricity
0.0016152
Mean motion
16.26500060 rev/d
Perigee alt
191.3 km
Apogee alt
212.6 km
Semi-major
6,580.1 km
B*
3.1607e-3
RAAN
219.7081°
Arg perigee
29.5667°
Mean anomaly
330.6130°
Rev number
11,825

§ Raw data

STARLINK-317251 59538U 24074E   26144.66457495  .11391256  92250-5  31607-2 0  99902 59538  42.9733 219.7081 0016152  29.5667 330.6130 16.26500060118257

JSON: /api/v1/satellites/59538 · /tle

For live sub-satellite position, see the globe view (requires WebGL).

§ Visibility from observer

Set your observer location to see the next 7 days of passes ≥ 10°. The values pass through the URL so the page stays shareable.

No JS? Fill the form by hand. The geolocation button needs JavaScript.